CW2640 Weather Reports


Display with metric or nautical units.
time (UTC)temp
F
wind
direction
speed
MPH
gust
MPH
rain 1hr
in
rain 24hr
in
rain mn
in
humidity
%
barometer
mb
20260509062631 55 80 0.0 0.0 0.00 0.00 0.00 99 1012.2
20260509055629 55 80 0.0 0.0 0.00 0.00 0.00 99 1012.4
20260509052624 55 80 0.0 0.0 0.00 0.00 0.00 99 1012.3
20260509045619 55 80 0.0 0.0 0.00 0.00 0.00 99 1013.2
20260509042616 55 80 0.0 0.0 0.00 0.00 0.00 99 1013.2
20260509035615 56 80 0.0 0.0 0.00 0.00 0.00 99 1013.3
20260509032615 56 80 0.0 0.0 0.00 0.00 0.00 99 1012.9
20260509025610 57 87 0.0 0.0 0.00 0.00 0.00 99 1013.1
20260509022606 58 89 0.0 0.0 0.00 0.00 0.00 99 1013.3
20260509015603 58 95 0.0 0.0 0.00 0.00 0.00 99 1013.1
20260509012600 59 97 0.0 0.0 0.00 0.00 0.00 97 1013.8
20260509005600 60 99 0.0 0.0 0.00 0.00 0.00 95 1013.2
20260509002559 61 86 0.0 0.0 0.00 0.00 0.00 89 1013.3
20260508235559 63 118 0.0 0.0 0.00 0.00 0.00 84 1013.5
20260508232554 64 118 0.0 0.0 0.00 0.00 0.00 81 1013.8
20260508225554 64 118 0.0 0.0 0.00 0.00 0.00 79 1014.5
20260508222549 64 114 0.0 0.0 0.00 0.00 0.00 76 1014.4
20260508215547 65 114 0.0 0.0 0.00 0.00 0.00 75 1014.0
20260508212544 66 109 0.0 0.0 0.00 0.00 0.00 75 1014.5
20260508205542 68 108 0.0 0.0 0.00 0.00 0.00 72 1014.5
20260508202537 68 108 0.0 0.0 0.00 0.00 0.00 66 1014.2
20260508195535 69 98 0.0 0.0 0.00 0.00 0.00 65 1015.1
20260508192532 69 107 0.0 0.0 0.00 0.00 0.00 66 1015.1
20260508185530 68 104 0.0 0.0 0.00 0.00 0.00 69 1015.1
20260508182528 68 99 0.0 0.0 0.00 0.00 0.00 66 1015.7
20260508175525 68 95 0.0 0.0 0.00 0.00 0.00 62 1015.9
20260508172524 68 84 0.0 0.0 0.00 0.00 0.00 60 1016.6
20260508165523 70 80 0.0 0.0 0.00 0.00 0.00 56 1016.9
20260508162521 70 80 0.0 0.0 0.00 0.00 0.00 57 1017.2
20260508155516 69 80 0.0 0.0 0.00 0.00 0.00 59 1017.7
20260508152515 68 80 0.0 0.0 0.00 0.00 0.00 64 1018.0
20260508145512 67 80 0.0 0.0 0.00 0.00 0.00 63 1018.2
20260508142512 64 80 0.0 0.0 0.00 0.00 0.00 72 1018.4
20260508135509 64 80 0.0 0.0 0.00 0.00 0.00 74 1018.9
20260508132509 58 80 0.0 0.0 0.00 0.00 0.00 87 1018.6
20260508125504 55 80 0.0 0.0 0.00 0.00 0.00 99 1018.6
20260508122501 52 80 0.0 0.0 0.00 0.00 0.00 99 1018.5
20260508115458 50 80 0.0 0.0 0.00 0.00 0.00 99 1018.3
20260508112456 50 80 0.0 0.0 0.00 0.00 0.00 99 1017.9
20260508105452 50 80 0.0 0.0 0.00 0.00 0.00 99 1017.5
20260508102448 50 80 0.0 0.0 0.00 0.00 0.00 99 1017.0
20260508095443 50 80 0.0 0.0 0.00 0.00 0.00 99 1016.9
20260508092443 50 80 0.0 0.0 0.00 0.00 0.00 99 1016.0
20260508085443 51 80 0.0 0.0 0.00 0.00 0.00 99 1015.7
20260508082441 51 80 0.0 0.0 0.00 0.00 0.00 99 1015.8
20260508075441 52 80 0.0 0.0 0.00 0.00 0.00 99 1015.8
20260508072441 53 80 0.0 0.0 0.00 0.00 0.00 99 1015.8
20260508065438 53 80 0.0 0.0 0.00 0.00 0.00 99 1016.1